User: anonymous   Login
Location: Amos
(48.5670°N, 78.1170°W)
Time: 15:34:36
(UTC-05:00)
Language:

NOAA 18 - Orbit

View from above orbital plane
View from above orbital plane
View from above satellite
View from above satellite

Ground track
Ground track

The orbit data is extracted from the following two-line orbital elements,

1 28654U 05018A   20020.54978266 +.00000060 +00000-0 +57414-4 0  9991
2 28654 099.0672 075.4315 0013367 291.4024 068.5720 14.12482770755895
Epoch (UTC): 20 January 2020 13:11:41
Eccentricity: 0.0013367
inclination: 99.0672°
perigee height: 841 km
apogee height: 860 km
right ascension of ascending node: 75.4315°
argument of perigee: 291.4024°
revolutions per day: 14.12482770
mean anomaly at epoch: 68.5720°
orbit number at epoch: 75589

The dashed part of the orbit path shows where the satellite is in the earth's shadow,  

DLR